Location: Quedlinburg
(51.7921°N, 11.1414°E)
Time: 15:18:19
(UTC+02:00)

CUBESAT XI-V - Pass Details

Date: 16 March 2026
Orbit: 643 x 664 km, 98.3° (Epoch: 17 April)

Event Time Altitude Azimuth Distance (km) Brightness Sun altitude
Exits shadow 02:09:24 22° 34° (NE) 1,417 ? -35.4°
Drops below altitude 10° 02:11:47 10° 6° (N) 2,070 ? -35.2°
Sets 02:14:16 0° 354° (N) 2,982 ? -35.0°
